sat.trackr.live / text

‹ back to catalog

STARLINK-31534

NORAD 59398 · 2024-064A

PAYLOAD ACTIVE UNKNOWN

§ Identity

Operator
Country
US
Launch date
2024-04-05
Launch site
AFETR
Launch vehicle
Mass (kg)
RCS (m²)

Purposes: comms

External: N2YO · Heavens-Above · Gunter

§ Orbital elements

Epoch: 2026-09-21T19:21:40.808448Z

Period
94.27 min
Inclination
43.0048°
Eccentricity
0.0001832
Mean motion
15.27592843 rev/d
Perigee alt
481.8 km
Apogee alt
484.3 km
Semi-major
6,861.1 km
B*
3.7300e-5
RAAN
28.2411°
Arg perigee
315.5420°
Mean anomaly
44.5285°
Rev number
13,916

§ Raw data

STARLINK-315341 59398U 24064A   26264.80672232  .00000764  00000+0  37300-4 0  99932 59398  43.0048  28.2411 0001832 315.5420  44.5285 15.27592843139161

JSON: /api/v1/satellites/59398 · /tle

For live sub-satellite position, see the globe view (requires WebGL).

§ Visibility from observer

Set your observer location to see the next 7 days of passes ≥ 10°. The values pass through the URL so the page stays shareable.

No JS? Fill the form by hand. The geolocation button needs JavaScript.